Regional Weather Roundup
Issued by NWS Little Rock, AR

Home | Current Version | Previous Version | Graphics & Text | Print | Product List | Glossary On
Versions: 1 2 3 4 5 6 7 8 9 10 11 12 13 14 15 16 17 18 19 20 21 22 23 24 25 26 27 28 29 30 31 32 33 34 35 36 37 38 39 40 41 42 43 44 45 46 47 48 49 50
000
ASUS44 KLZK 031505
RWRLZK

WEATHER ROUNDUP FOR ARKANSAS
NATIONAL WEATHER SERVICE LITTLE ROCK AR
1000 AM CDT THU SEP 03 2015

NOTE: "FAIR" INDICATES FEW OR NO CLOUDS BELOW 12,000 FEET WITH NO
SIGNIFICANT WEATHER AND/OR OBSTRUCTIONS TO VISIBILITY.

ARZ001-003-010-029-031600-
NORTHWEST ARKANSAS

CITY           SKY/WX    TMP DP  RH WIND       PRES   REMARKS
FAYETTEVILLE   SUNNY     80  70  71 S9        30.05S
FORT SMITH     SUNNY     80  68  66 E6        30.01S
HARRISON       SUNNY     78  69  73 SE6       30.07S
BENTONVILLE    SUNNY     81  66  61 S6        30.06S
ROGERS         SUNNY     81  69  67 S5        30.07R
SILOAM SPGS    SUNNY     81  66  61 S8        30.04R
HIGHFILL       SUNNY     80  70  71 S7        30.05S
SPRINGDALE     SUNNY     81  68  65 S6        30.08R
$$

ARZ004-005-016-031600-
NORTH CENTRAL ARKANSAS

CITY           SKY/WX    TMP DP  RH WIND       PRES   REMARKS
BATESVILLE     SUNNY     82  70  65 CALM      30.04S HX  86
FLIPPIN        SUNNY     79  64  61 CALM      30.04S
MTN HOME       SUNNY     80  68  66 VRB3      30.05S
$$

ARZ040-041-031600-
WEST CENTRAL ARKANSAS

CITY           SKY/WX    TMP DP  RH WIND       PRES   REMARKS
MENA           SUNNY     79  70  73 CALM      30.05S
MOUNT IDA      SUNNY     81  68  64 CALM      30.02S
$$

ARZ009-017-025-026-028-031600-
NORTHEAST ARKANSAS

CITY           SKY/WX    TMP DP  RH WIND       PRES   REMARKS
JONESBORO      SUNNY     84  71  65 CALM      30.03S HX  89
NEWPORT        SUNNY     85  72  65 CALM      30.04S HX  91
WALNUT RIDGE   SUNNY     82  72  69 CALM      30.03F HX  87
BLYTHEVILLE    SUNNY     85  75  72 CALM      30.04S HX  93
$$

ARZ022-023-033-042-044-031600-
CENTRAL ARKANSAS

CITY           SKY/WX    TMP DP  RH WIND       PRES   REMARKS
LITTLE ROCK    SUNNY     84  70  62 E3        30.03S HX  88
N LITTLE ROCK  SUNNY     83  74  74 E3        30.03S HX  89
JACKSONVILLE   SUNNY     82  71  68 E1        30.03S HX  86
SEARCY         SUNNY     83  71  67 E3        30.05S HX  87
HOT SPRINGS    SUNNY     81  69  67 E7        30.04S
RUSSELLVILLE   SUNNY     81  70  69 CALM      30.03S
$$

ARZ036-031600-
EAST ARKANSAS

CITY           SKY/WX    TMP DP  RH WIND       PRES   REMARKS
WEST MEMPHIS   SUNNY     82  75  79 CALM      30.03S HX  89
$$

ARZ050-053-066-070-073-031600-
SOUTHWEST ARKANSAS

CITY           SKY/WX    TMP DP  RH WIND       PRES   REMARKS
ARKADELPHIA    FAIR      83  72  69 VRB3      30.03S HX  88
CAMDEN         SUNNY     82  70  65 CALM      30.02S HX  86
TEXARKANA      SUNNY     83  67  58 S7        30.02S HX  85
EL DORADO      SUNNY     82  69  64 VRB5      30.03S HX  85
DE QUEEN       SUNNY     81  71  71 VRB5      30.00S HX  85
$$

ARZ056-057-069-031600-
SOUTHEAST ARKANSAS

CITY           SKY/WX    TMP DP  RH WIND       PRES   REMARKS
PINE BLUFF     SUNNY     81  74  79 SE3       30.02S HX  86
STUTTGART      SUNNY     84  72  65 SW3       30.03S HX  89
MONTICELLO     SUNNY     83  74  74 CALM      30.02S HX  89

$$




USA.gov is the U.S. government's official web portal to all federal, state and local government web resources and services.